Location: Unspecified
(0.0000°N, 0.0000°E)
Time: 13:54:04
(UTC+00:00)

Vanguard 1 - All Passes

Search period start: 24 November 2014 00:00
Search period end: 04 December 2014 00:00
Orbit: 652 x 3835 km, 34.3° (Epoch: 22 November)

Date Brightness Start Highest point End Pass type
(mag) Time Alt. Az. Time Alt. Az. Time Alt. Az.
24 Nov - 00:04:12 10° WNW 00:21:40 25° NNW 00:36:30 10° NNE visible
24 Nov - 02:48:12 10° NNW 02:53:33 12° N 02:58:08 10° NNE visible
24 Nov - 05:16:15 10° NNW 05:21:55 15° NNE 05:26:15 10° NE visible
24 Nov - 07:37:56 10° NW 07:45:05 57° NNE 07:49:47 10° ESE daylight
24 Nov - 10:03:04 10° WSW 10:05:07 13° SW 10:07:06 10° S daylight
24 Nov - 17:10:25 10° SSW 17:21:09 30° SE 17:37:25 10° E daylight
24 Nov - 19:29:43 10° SW 19:46:15 81° SE 20:10:10 10° NE visible
24 Nov - 21:54:26 10° WSW 22:14:17 48° NNW 22:35:36 10° NE visible
25 Nov - 00:30:03 10° WNW 00:45:19 21° NNW 00:58:04 10° NNE visible
25 Nov - 03:11:57 10° NNW 03:17:20 12° N 03:21:51 10° NNE visible
25 Nov - 05:37:04 10° NNW 05:44:31 21° NNE 05:49:37 10° ENE daylight
25 Nov - 07:59:40 10° NW 08:06:39 81° SW 08:11:18 10° SE daylight
25 Nov - 17:31:12 10° SSW 17:43:04 40° SE 18:01:54 10° ENE daylight
25 Nov - 19:51:24 10° SW 20:08:23 83° NW 20:32:26 10° NE visible
25 Nov - 22:17:51 10° W 22:37:13 39° NNW 22:57:09 10° NNE visible
26 Nov - 00:56:21 10° NW 01:09:18 17° NNW 01:20:00 10° NNE visible
26 Nov - 03:34:09 10° NNW 03:40:52 14° N 03:46:11 10° NNE visible
26 Nov - 05:58:12 10° NNW 06:06:52 30° NNE 06:12:18 10° E daylight
26 Nov - 08:21:49 10° WNW 08:28:02 43° SW 08:32:26 10° SSE daylight
26 Nov - 15:36:45 10° SSE 15:40:57 13° SE 15:46:01 10° ESE daylight
26 Nov - 17:52:10 10° SSW 18:04:51 52° SE 18:25:37 10° ENE visible
26 Nov - 20:13:22 10° WSW 20:30:43 68° NW 20:54:26 10° NE visible
26 Nov - 22:41:57 10° W 23:00:28 31° NNW 23:18:45 10° NNE visible
27 Nov - 01:22:25 10° NW 01:33:28 16° N 01:42:30 10° NNE visible
27 Nov - 03:55:44 10° NNW 04:04:07 17° NNE 04:10:13 10° NE visible
27 Nov - 06:19:35 10° NW 06:28:57 45° NNE 06:34:28 10° ESE daylight
27 Nov - 08:44:33 10° W 08:49:20 24° SW 08:53:06 10° SSE daylight
27 Nov - 15:56:01 10° S 16:03:05 19° SE 16:13:00 10° ESE daylight
27 Nov - 18:13:19 10° SW 18:26:37 67° SE 18:48:46 10° ENE visible
27 Nov - 20:35:41 10° WSW 20:53:15 56° NW 21:16:16 10° NE visible
27 Nov - 23:06:44 10° WNW 23:24:05 26° NNW 23:40:29 10° NNE visible
28 Nov - 01:47:29 10° NNW 01:57:38 15° N 02:05:47 10° NNE visible
28 Nov - 04:17:09 10° NNW 04:27:04 22° NNE 04:33:42 10° ENE visible
28 Nov - 06:41:16 10° NW 06:50:46 71° NE 06:56:13 10° ESE daylight
28 Nov - 09:08:28 10° WSW 09:10:44 12° SW 09:12:47 10° SSW daylight
28 Nov - 16:16:15 10° SSW 16:24:56 27° SE 16:38:24 10° E daylight
28 Nov - 18:34:42 10° SW 18:48:30 84° SE 19:11:26 10° NE visible
28 Nov - 20:58:27 10° W 21:16:03 45° NNW 21:38:00 10° NE visible
28 Nov - 23:32:10 10° WNW 23:48:05 22° NNW 00:02:32 10° NNE visible
29 Nov - 02:11:14 10° NNW 02:21:37 16° N 02:29:39 10° NE visible
29 Nov - 04:38:35 10° NNW 04:49:44 29° NNE 04:56:36 10° E visible
29 Nov - 07:03:16 10° WNW 07:12:19 73° SW 07:17:37 10° SE daylight
29 Nov - 16:36:51 10° SSW 16:46:35 38° SE 17:02:50 10° ENE daylight
29 Nov - 18:56:19 10° WSW 19:10:34 80° NW 19:33:45 10° NE visible
29 Nov - 21:21:44 10° W 21:39:09 37° NNW 21:59:45 10° NNE visible
29 Nov - 23:57:53 10° NW 00:12:22 19° NNW 00:25:04 10° NNE visible
30 Nov - 02:33:55 10° NNW 02:45:20 19° N 02:53:37 10° NE visible
30 Nov - 05:00:06 10° NW 05:12:08 40° NNE 05:19:00 10° E visible
30 Nov - 07:25:42 10° WNW 07:33:40 43° SW 07:38:40 10° SSE daylight
30 Nov - 16:57:43 10° SSW 17:08:08 51° SE 17:26:31 10° ENE daylight
30 Nov - 19:18:13 10° WSW 19:32:52 65° NW 19:55:50 10° NE visible
30 Nov - 21:45:37 10° WNW 22:02:36 30° NNW 22:21:35 10° NNE visible
01 Dec - 00:23:18 10° NW 00:36:49 18° N 00:48:14 10° NNE visible
01 Dec - 02:56:00 10° NNW 03:08:42 23° NNE 03:17:17 10° ENE visible
01 Dec - 05:21:48 10° NW 05:34:15 56° NNE 05:41:00 10° ESE visible
01 Dec - 07:48:42 10° W 07:54:55 25° SW 07:59:17 10° SSE daylight
01 Dec - 15:02:32 10° S 15:07:37 16° SE 15:14:20 10° ESE daylight
01 Dec - 17:18:49 10° SW 17:29:45 68° SE 17:49:38 10° ENE daylight
01 Dec - 19:40:29 10° WSW 19:55:26 52° NNW 20:17:45 10° NE visible
01 Dec - 22:10:08 10° WNW 22:26:27 25° NNW 22:43:41 10° NNE visible
02 Dec - 00:47:52 10° NW 01:01:13 18° N 01:12:02 10° NE visible
02 Dec - 03:17:49 10° NNW 03:31:44 29° NNE 03:40:28 10° ENE visible
02 Dec - 05:43:45 10° NW 05:56:05 82° NE 06:02:38 10° ESE daylight
02 Dec - 08:12:44 10° WSW 08:16:14 14° SW 08:19:07 10° S daylight
02 Dec - 15:22:22 10° S 15:29:15 24° SE 15:39:44 10° E daylight
02 Dec - 17:40:09 10° SW 17:51:30 86° SE 18:12:17 10° NE visible
02 Dec - 20:03:10 10° W 20:18:17 42° NNW 20:39:36 10° NE visible
02 Dec - 22:35:08 10° WNW 22:50:40 22° NNW 23:06:12 10° NNE visible
03 Dec - 01:11:24 10° NNW 01:25:23 20° N 01:36:07 10° NE visible
03 Dec - 03:39:33 10° NW 03:54:28 37° NNE 04:03:10 10° E visible
03 Dec - 06:06:01 10° WNW 06:17:39 69° SW 06:23:57 10° SE daylight
03 Dec - 15:42:49 10° SSW 15:50:42 35° SE 16:04:01 10° ENE daylight
03 Dec - 18:01:44 10° WSW 18:13:29 75° NW 18:34:36 10° NE visible
03 Dec - 20:26:21 10° W 20:41:28 34° NNW 21:01:30 10° NE visible
03 Dec - 23:00:17 10° NW 23:15:11 20° N 23:29:19 10° NE visible
